Location: Aghk�ilisa
(40.0189°N, 45.0097°E)
Time: 12:01:09
(UTC+00:00)

FALCON 9 DEB - Pass Details

Date: 21 October 2019
Orbit: 430 x 445 km, 53.0° (Epoch: 13 November)

Event Time Altitude Azimuth Distance (km) Brightness Sun altitude
Rises 15:14:50 0° 316° (NW) 2,418 7.5 -12.6°
Reaches altitude 10° 15:17:11 10° 330° (NNW) 1,550 6.3 -13.1°
Maximum altitude 15:20:10 26° 28° (NNE) 906 4.4 -13.7°
Enters shadow 15:21:11 22° 57° (ENE) 1,002 4.4 -13.9°
